Time,TemperatureF,DewpointF,PressureIn,WindDirection,WindDirectionDegrees,WindSpeedMPH,WindSpeedGustMPH,Humidity,HourlyPrecipIn,Conditions,Clouds,dailyrainin,SoftwareType,DateUTC
2013-02-24 00:01:00,53.1,49.3,29.98,NNE,22,3.0,8.0,87,0.00,,,0.01,meteohub,2013-02-24 06:01:00,
2013-02-24 00:06:00,52.9,49.1,29.98,NNE,23,2.0,6.0,87,0.00,,,0.00,meteohub,2013-02-24 06:06:00,
2013-02-24 00:11:00,52.9,49.1,29.99,NNE,27,3.0,7.0,87,0.00,,,0.00,meteohub,2013-02-24 06:11:00,
2013-02-24 00:16:00,52.9,49.1,29.99,NNE,30,4.0,8.0,87,0.00,,,0.00,meteohub,2013-02-24 06:16:00,
2013-02-24 00:21:00,52.9,49.1,29.99,NE,46,2.0,8.0,87,0.00,,,0.00,meteohub,2013-02-24 06:21:00,
2013-02-24 00:26:00,52.7,48.6,29.99,NE,43,5.0,8.0,86,0.00,,,0.00,meteohub,2013-02-24 06:26:00,
2013-02-24 00:31:00,52.5,48.4,29.99,NE,41,4.0,7.0,86,0.00,,,0.00,meteohub,2013-02-24 06:31:00,
2013-02-24 00:36:00,52.5,48.4,29.99,NE,44,6.0,7.0,86,0.00,,,0.00,meteohub,2013-02-24 06:36:00,
2013-02-24 00:41:00,52.3,48.2,29.99,NE,40,5.0,8.0,86,0.00,,,0.00,meteohub,2013-02-24 06:41:00,
2013-02-24 00:46:00,52.3,48.2,29.99,NE,46,4.0,8.0,86,0.00,,,0.00,meteohub,2013-02-24 06:46:00,
2013-02-24 00:51:00,52.3,48.2,29.98,NE,43,6.0,8.0,86,0.00,,,0.00,meteohub,2013-02-24 06:51:00,
2013-02-24 00:56:00,52.2,48.0,29.99,NE,44,5.0,8.0,86,0.00,,,0.00,meteohub,2013-02-24 06:56:00,
2013-02-24 01:01:00,52.0,47.8,29.99,NE,47,5.0,9.0,86,0.00,,,0.00,meteohub,2013-02-24 07:01:00,
2013-02-24 01:06:00,52.0,48.2,29.99,NE,42,3.0,9.0,87,0.00,,,0.00,meteohub,2013-02-24 07:06:00,
2013-02-24 01:11:00,51.8,48.0,29.99,NE,43,4.0,9.0,87,0.00,,,0.00,meteohub,2013-02-24 07:11:00,
2013-02-24 01:16:00,51.6,47.8,29.99,NE,45,3.0,7.0,87,0.00,,,0.00,meteohub,2013-02-24 07:16:00,
2013-02-24 01:21:00,51.6,47.8,29.99,NE,46,4.0,8.0,87,0.00,,,0.00,meteohub,2013-02-24 07:21:00,
2013-02-24 01:26:00,51.4,47.7,29.99,NE,51,2.0,8.0,87,0.00,,,0.00,meteohub,2013-02-24 07:26:00,
2013-02-24 01:31:00,51.4,47.7,29.99,NE,51,1.0,8.0,87,0.00,,,0.00,meteohub,2013-02-24 07:31:00,
2013-02-24 01:36:00,51.3,47.5,29.99,NE,51,2.0,7.0,87,0.00,,,0.00,meteohub,2013-02-24 07:36:00,
2013-02-24 01:41:00,51.3,47.5,29.99,NE,51,1.0,5.0,87,0.00,,,0.00,meteohub,2013-02-24 07:41:00,
2013-02-24 01:46:00,51.3,47.8,29.99,NE,51,2.0,5.0,88,0.00,,,0.00,meteohub,2013-02-24 07:46:00,
2013-02-24 01:51:00,51.3,47.5,29.99,NE,51,3.0,5.0,87,0.00,,,0.00,meteohub,2013-02-24 07:51:00,
2013-02-24 01:56:00,51.1,47.3,29.99,NE,51,3.0,6.0,87,0.00,,,0.00,meteohub,2013-02-24 07:56:00,
2013-02-24 02:01:00,51.1,47.7,29.99,NE,48,3.0,6.0,88,0.00,,,0.00,meteohub,2013-02-24 08:01:00,
2013-02-24 02:06:00,50.9,47.5,29.99,NE,49,3.0,6.0,88,0.00,,,0.00,meteohub,2013-02-24 08:06:00,
2013-02-24 02:11:00,50.7,47.3,29.99,NE,49,4.0,6.0,88,0.00,,,0.00,meteohub,2013-02-24 08:11:00,
2013-02-24 02:16:00,50.7,47.3,29.99,NE,46,2.0,6.0,88,0.00,,,0.00,meteohub,2013-02-24 08:16:00,
2013-02-24 02:22:00,50.5,47.1,29.99,NE,46,4.0,6.0,88,0.00,,,0.00,meteohub,2013-02-24 08:22:00,
2013-02-24 02:27:00,50.5,47.1,29.99,NE,46,3.0,6.0,88,0.00,,,0.00,meteohub,2013-02-24 08:27:00,
2013-02-24 02:32:00,50.4,47.3,29.98,NE,46,2.0,6.0,89,0.00,,,0.00,meteohub,2013-02-24 08:32:00,
2013-02-24 02:37:00,50.4,47.3,29.98,NE,48,3.0,6.0,89,0.00,,,0.00,meteohub,2013-02-24 08:37:00,
2013-02-24 02:42:00,50.2,47.1,29.98,NE,46,5.0,6.0,89,0.00,,,0.00,meteohub,2013-02-24 08:42:00,
2013-02-24 02:47:00,50.2,47.1,29.98,NE,46,4.0,7.0,89,0.00,,,0.00,meteohub,2013-02-24 08:47:00,
2013-02-24 02:52:00,50.2,47.1,29.98,NE,49,3.0,7.0,89,0.00,,,0.00,meteohub,2013-02-24 08:52:00,
2013-02-24 02:57:00,50.2,47.1,29.98,NE,50,4.0,7.0,89,0.00,,,0.00,meteohub,2013-02-24 08:57:00,
2013-02-24 03:02:00,49.8,46.8,29.98,NE,50,4.0,7.0,89,0.00,,,0.00,meteohub,2013-02-24 09:02:00,
2013-02-24 03:07:00,49.8,46.9,29.98,NE,51,5.0,7.0,90,0.00,,,0.00,meteohub,2013-02-24 09:07:00,
2013-02-24 03:12:00,49.6,46.8,29.97,NE,51,4.0,6.0,90,0.00,,,0.00,meteohub,2013-02-24 09:12:00,
2013-02-24 03:17:00,49.6,46.8,29.97,NE,51,4.0,6.0,90,0.00,,,0.00,meteohub,2013-02-24 09:17:00,
2013-02-24 03:22:00,49.5,46.6,29.97,NE,52,6.0,6.0,90,0.00,,,0.00,meteohub,2013-02-24 09:22:00,
2013-02-24 03:27:00,49.5,46.6,29.97,ENE,62,1.0,7.0,90,0.00,,,0.00,meteohub,2013-02-24 09:27:00,
2013-02-24 03:32:00,49.3,46.4,29.97,ENE,63,4.0,7.0,90,0.00,,,0.00,meteohub,2013-02-24 09:32:00,
2013-02-24 03:37:00,49.3,46.4,29.98,ENE,67,4.0,7.0,90,0.00,,,0.00,meteohub,2013-02-24 09:37:00,
2013-02-24 03:42:00,49.3,46.8,29.97,ENE,69,4.0,7.0,91,0.00,,,0.00,meteohub,2013-02-24 09:42:00,
2013-02-24 03:47:00,48.9,46.4,29.97,ENE,60,4.0,7.0,91,0.00,,,0.00,meteohub,2013-02-24 09:47:00,
2013-02-24 03:52:00,48.9,46.4,29.97,ENE,66,5.0,7.0,91,0.00,,,0.00,meteohub,2013-02-24 09:52:00,
2013-02-24 03:57:00,48.9,46.4,29.97,ENE,68,2.0,8.0,91,0.00,,,0.00,meteohub,2013-02-24 09:57:00,
2013-02-24 04:02:00,48.7,46.2,29.97,ENE,62,4.0,8.0,91,0.00,,,0.00,meteohub,2013-02-24 10:02:00,
2013-02-24 04:07:00,48.7,46.2,29.97,ENE,61,2.0,8.0,91,0.00,,,0.00,meteohub,2013-02-24 10:07:00,
2013-02-24 04:12:00,48.7,46.2,29.97,ENE,61,4.0,7.0,91,0.00,,,0.00,meteohub,2013-02-24 10:12:00,
2013-02-24 04:17:00,48.7,46.2,29.97,NE,55,5.0,7.0,91,0.00,,,0.00,meteohub,2013-02-24 10:17:00,
2013-02-24 04:22:00,48.7,46.2,29.97,NE,54,5.0,7.0,91,0.00,,,0.00,meteohub,2013-02-24 10:22:00,
2013-02-24 04:27:00,48.7,46.2,29.97,NE,55,2.0,7.0,91,0.00,,,0.00,meteohub,2013-02-24 10:27:00,
2013-02-24 04:32:00,48.6,46.0,29.97,NE,55,6.0,7.0,91,0.00,,,0.00,meteohub,2013-02-24 10:32:00,
2013-02-24 04:37:00,48.6,46.0,29.97,NE,55,4.0,6.0,91,0.00,,,0.00,meteohub,2013-02-24 10:37:00,
2013-02-24 04:42:00,48.4,46.2,29.97,NE,55,4.0,6.0,92,0.00,,,0.00,meteohub,2013-02-24 10:42:00,
2013-02-24 04:47:00,48.4,46.2,29.97,NE,55,3.0,6.0,92,0.00,,,0.00,meteohub,2013-02-24 10:47:00,
2013-02-24 04:52:00,48.2,46.0,29.97,NE,55,4.0,5.0,92,0.00,,,0.00,meteohub,2013-02-24 10:52:00,
2013-02-24 04:57:00,48.2,46.0,29.96,NE,55,2.0,7.0,92,0.00,,,0.00,meteohub,2013-02-24 10:57:00,
2013-02-24 05:02:00,48.2,46.0,29.96,ENE,58,4.0,8.0,92,0.00,,,0.00,meteohub,2013-02-24 11:02:00,
2013-02-24 05:07:00,48.0,45.9,29.96,ENE,62,1.0,8.0,92,0.00,,,0.00,meteohub,2013-02-24 11:07:00,
2013-02-24 05:12:00,48.0,45.9,29.96,ENE,63,3.0,8.0,92,0.00,,,0.00,meteohub,2013-02-24 11:12:00,
2013-02-24 05:17:00,47.8,45.9,29.96,NE,51,7.0,8.0,93,0.00,,,0.00,meteohub,2013-02-24 11:17:00,
2013-02-24 05:22:00,47.8,45.7,29.96,NE,52,4.0,7.0,92,0.00,,,0.00,meteohub,2013-02-24 11:22:00,
2013-02-24 05:27:00,47.8,45.9,29.96,NE,55,4.0,7.0,93,0.00,,,0.00,meteohub,2013-02-24 11:27:00,
2013-02-24 05:32:00,47.7,45.7,29.96,NE,52,3.0,8.0,93,0.00,,,0.00,meteohub,2013-02-24 11:32:00,
2013-02-24 05:37:00,47.7,45.7,29.96,ENE,58,3.0,8.0,93,0.00,,,0.00,meteohub,2013-02-24 11:37:00,
2013-02-24 05:42:00,47.7,45.7,29.96,ENE,60,8.0,9.0,93,0.00,,,0.00,meteohub,2013-02-24 11:42:00,
2013-02-24 05:47:00,47.7,45.7,29.96,NE,53,4.0,10.0,93,0.00,,,0.00,meteohub,2013-02-24 11:47:00,
2013-02-24 05:52:00,47.7,45.7,29.96,ENE,63,2.0,10.0,93,0.00,,,0.00,meteohub,2013-02-24 11:52:00,
2013-02-24 05:57:00,47.5,45.5,29.96,ENE,63,2.0,10.0,93,0.00,,,0.00,meteohub,2013-02-24 11:57:00,
2013-02-24 06:02:00,47.5,45.5,29.96,ENE,63,2.0,10.0,93,0.00,,,0.00,meteohub,2013-02-24 12:02:00,
2013-02-24 06:07:00,47.5,45.5,29.97,ENE,65,4.0,7.0,93,0.00,,,0.00,meteohub,2013-02-24 12:07:00,
2013-02-24 06:12:00,47.5,45.5,29.96,ENE,67,5.0,7.0,93,0.00,,,0.00,meteohub,2013-02-24 12:12:00,
2013-02-24 06:17:00,47.5,45.5,29.96,ENE,67,4.0,7.0,93,0.00,,,0.00,meteohub,2013-02-24 12:17:00,
2013-02-24 06:22:00,47.5,45.5,29.96,ENE,67,5.0,7.0,93,0.00,,,0.00,meteohub,2013-02-24 12:22:00,
2013-02-24 06:27:00,47.5,45.5,29.97,ENE,69,4.0,8.0,93,0.00,,,0.00,meteohub,2013-02-24 12:27:00,
2013-02-24 06:32:00,47.5,45.5,29.97,ENE,69,5.0,8.0,93,0.00,,,0.00,meteohub,2013-02-24 12:32:00,
2013-02-24 06:37:00,47.5,45.5,29.97,ENE,71,8.0,8.0,93,0.00,,,0.00,meteohub,2013-02-24 12:37:00,
2013-02-24 06:42:00,47.7,45.7,29.97,ENE,77,7.0,9.0,93,0.00,,,0.00,meteohub,2013-02-24 12:42:00,
2013-02-24 06:47:00,47.7,45.7,29.97,ENE,75,7.0,9.0,93,0.00,,,0.00,meteohub,2013-02-24 12:47:00,
2013-02-24 06:52:00,47.7,45.5,29.97,ENE,75,7.0,9.0,92,0.00,,,0.00,meteohub,2013-02-24 12:52:00,
2013-02-24 06:57:00,47.7,45.5,29.97,ENE,76,5.0,8.0,92,0.00,,,0.00,meteohub,2013-02-24 12:57:00,
2013-02-24 07:02:00,47.8,45.3,29.97,ENE,78,5.0,8.0,91,0.00,,,0.00,meteohub,2013-02-24 13:02:00,
2013-02-24 07:07:00,48.0,45.5,29.98,ENE,77,3.0,8.0,91,0.00,,,0.00,meteohub,2013-02-24 13:07:00,
2013-02-24 07:12:00,48.2,45.7,29.98,East,81,6.0,9.0,91,0.00,,,0.00,meteohub,2013-02-24 13:12:00,
2013-02-24 07:17:00,48.4,45.5,29.98,ENE,78,3.0,10.0,90,0.00,,,0.00,meteohub,2013-02-24 13:17:00,
2013-02-24 07:22:00,48.4,45.5,29.98,ENE,71,8.0,10.0,90,0.00,,,0.00,meteohub,2013-02-24 13:22:00,
2013-02-24 07:27:00,48.4,45.5,29.98,East,80,6.0,11.0,90,0.00,,,0.00,meteohub,2013-02-24 13:27:00,
2013-02-24 07:32:00,48.4,45.5,29.98,ENE,75,8.0,11.0,90,0.00,,,0.00,meteohub,2013-02-24 13:32:00,
2013-02-24 07:37:00,48.6,45.7,29.98,ENE,75,4.0,11.0,90,0.00,,,0.00,meteohub,2013-02-24 13:37:00,
2013-02-24 07:42:00,48.7,45.9,29.98,East,80,5.0,11.0,90,0.00,,,0.00,meteohub,2013-02-24 13:42:00,
2013-02-24 07:47:00,49.1,46.2,29.99,East,79,6.0,10.0,90,0.00,,,0.00,meteohub,2013-02-24 13:47:00,
2013-02-24 07:52:00,49.3,46.2,29.99,ENE,74,10.0,10.0,89,0.00,,,0.00,meteohub,2013-02-24 13:52:00,
2013-02-24 07:57:00,49.5,46.0,29.99,ENE,74,5.0,11.0,88,0.00,,,0.00,meteohub,2013-02-24 13:57:00,
2013-02-24 08:02:00,49.6,46.2,29.99,ENE,74,8.0,11.0,88,0.00,,,0.00,meteohub,2013-02-24 14:02:00,
2013-02-24 08:07:00,50.0,46.6,29.99,ENE,75,5.0,11.0,88,0.00,,,0.00,meteohub,2013-02-24 14:07:00,
2013-02-24 08:12:00,50.4,46.6,29.99,ENE,72,5.0,11.0,87,0.00,,,0.00,meteohub,2013-02-24 14:12:00,
2013-02-24 08:17:00,50.4,46.6,29.99,ENE,67,7.0,11.0,87,0.00,,,0.00,meteohub,2013-02-24 14:17:00,
2013-02-24 08:22:00,50.5,46.8,29.99,ENE,71,7.0,10.0,87,0.00,,,0.00,meteohub,2013-02-24 14:22:00,
2013-02-24 08:28:00,50.9,46.9,29.99,ENE,61,9.0,10.0,86,0.00,,,0.00,meteohub,2013-02-24 14:28:00,
2013-02-24 08:33:00,51.3,47.3,29.99,ENE,66,5.0,10.0,86,0.00,,,0.00,meteohub,2013-02-24 14:33:00,
2013-02-24 08:38:00,51.4,47.5,30.00,East,80,5.0,9.0,86,0.00,,,0.00,meteohub,2013-02-24 14:38:00,
2013-02-24 08:43:00,51.8,47.5,30.00,ENE,78,8.0,10.0,85,0.00,,,0.00,meteohub,2013-02-24 14:43:00,
2013-02-24 08:48:00,52.0,47.7,30.00,ENE,76,8.0,10.0,85,0.00,,,0.00,meteohub,2013-02-24 14:48:00,
2013-02-24 08:53:00,52.3,48.0,30.00,ENE,74,4.0,10.0,85,0.00,,,0.00,meteohub,2013-02-24 14:53:00,
2013-02-24 08:58:00,52.7,48.4,30.00,ENE,71,4.0,9.0,85,0.00,,,0.00,meteohub,2013-02-24 14:58:00,
2013-02-24 09:03:00,53.1,48.7,30.00,ENE,67,4.0,10.0,85,0.00,,,0.00,meteohub,2013-02-24 15:03:00,
2013-02-24 09:08:00,53.2,48.6,30.01,ENE,57,5.0,10.0,84,0.00,,,0.00,meteohub,2013-02-24 15:08:00,
2013-02-24 09:13:00,53.6,49.3,30.01,NE,53,4.0,10.0,85,0.00,,,0.00,meteohub,2013-02-24 15:13:00,
2013-02-24 09:18:00,53.8,49.1,30.01,ENE,61,3.0,10.0,84,0.00,,,0.00,meteohub,2013-02-24 15:18:00,
2013-02-24 09:23:00,54.0,49.3,30.01,ENE,58,4.0,10.0,84,0.00,,,0.00,meteohub,2013-02-24 15:23:00,
2013-02-24 09:28:00,54.3,49.6,30.01,ENE,70,7.0,8.0,84,0.00,,,0.00,meteohub,2013-02-24 15:28:00,
2013-02-24 09:33:00,54.7,50.0,30.01,NE,55,2.0,8.0,84,0.00,,,0.00,meteohub,2013-02-24 15:33:00,
2013-02-24 09:38:00,54.9,50.2,30.01,ENE,76,4.0,8.0,84,0.00,,,0.00,meteohub,2013-02-24 15:38:00,
2013-02-24 09:43:00,55.4,50.7,30.00,ENE,74,7.0,11.0,84,0.00,,,0.00,meteohub,2013-02-24 15:43:00,
2013-02-24 09:48:00,55.9,50.9,30.00,ENE,67,2.0,11.0,83,0.00,,,0.00,meteohub,2013-02-24 15:48:00,
2013-02-24 09:54:00,55.8,50.4,30.00,ENE,65,3.0,11.0,82,0.00,,,0.00,meteohub,2013-02-24 15:54:00,
2013-02-24 09:59:00,56.8,51.8,30.00,ENE,76,3.0,9.0,83,0.00,,,0.00,meteohub,2013-02-24 15:59:00,
2013-02-24 10:04:00,56.8,51.1,30.00,ENE,67,4.0,9.0,81,0.00,,,0.00,meteohub,2013-02-24 16:04:00,
2013-02-24 10:09:00,56.8,51.4,30.01,East,83,8.0,8.0,82,0.00,,,0.00,meteohub,2013-02-24 16:09:00,
2013-02-24 10:14:00,57.4,52.0,30.00,ENE,67,3.0,9.0,82,0.00,,,0.00,meteohub,2013-02-24 16:14:00,
2013-02-24 10:19:00,57.4,51.6,30.00,ENE,78,8.0,9.0,81,0.00,,,0.00,meteohub,2013-02-24 16:19:00,
2013-02-24 10:24:00,57.9,52.2,30.00,ENE,76,7.0,9.0,81,0.00,,,0.00,meteohub,2013-02-24 16:24:00,
2013-02-24 10:29:00,57.7,52.0,30.01,ENE,69,4.0,9.0,81,0.00,,,0.00,meteohub,2013-02-24 16:29:00,
2013-02-24 10:34:00,58.5,52.7,30.01,ENE,69,1.0,9.0,81,0.00,,,0.00,meteohub,2013-02-24 16:34:00,
2013-02-24 10:39:00,58.8,52.7,30.00,East,101,6.0,9.0,80,0.00,,,0.00,meteohub,2013-02-24 16:39:00,
2013-02-24 10:44:00,59.2,52.7,30.00,ENE,72,4.0,11.0,79,0.00,,,0.00,meteohub,2013-02-24 16:44:00,
2013-02-24 10:49:00,59.2,53.1,30.00,East,85,5.0,12.0,80,0.00,,,0.00,meteohub,2013-02-24 16:49:00,
2013-02-24 10:54:00,59.7,53.6,30.00,ENE,78,7.0,12.0,80,0.00,,,0.00,meteohub,2013-02-24 16:54:00,
2013-02-24 10:59:00,59.9,53.4,30.00,East,79,8.0,12.0,79,0.00,,,0.00,meteohub,2013-02-24 16:59:00,
2013-02-24 11:04:00,60.1,53.6,29.99,ENE,71,3.0,11.0,79,0.00,,,0.00,meteohub,2013-02-24 17:04:00,
2013-02-24 11:09:00,60.4,54.0,30.00,NE,38,6.0,11.0,79,0.00,,,0.00,meteohub,2013-02-24 17:09:00,
2013-02-24 11:14:00,60.6,53.8,30.00,ENE,73,7.0,11.0,78,0.00,,,0.00,meteohub,2013-02-24 17:14:00,
2013-02-24 11:19:00,61.2,54.3,29.99,ENE,69,3.0,9.0,78,0.00,,,0.00,meteohub,2013-02-24 17:19:00,
2013-02-24 11:24:00,61.5,54.7,29.99,ENE,76,8.0,9.0,78,0.00,,,0.00,meteohub,2013-02-24 17:24:00,
2013-02-24 11:29:00,61.5,54.7,29.99,ENE,69,8.0,11.0,78,0.00,,,0.00,meteohub,2013-02-24 17:29:00,
2013-02-24 11:34:00,61.9,54.7,29.98,East,93,3.0,11.0,77,0.00,,,0.00,meteohub,2013-02-24 17:34:00,
2013-02-24 11:39:00,62.2,54.5,29.98,ENE,65,7.0,11.0,76,0.00,,,0.00,meteohub,2013-02-24 17:39:00,
2013-02-24 11:44:00,62.6,54.9,29.98,ENE,78,5.0,11.0,76,0.00,,,0.00,meteohub,2013-02-24 17:44:00,
2013-02-24 11:49:00,62.8,55.0,29.97,ESE,109,8.0,10.0,76,0.00,,,0.00,meteohub,2013-02-24 17:49:00,
2013-02-24 11:54:00,63.5,56.1,29.96,ENE,69,10.0,14.0,77,0.00,,,0.00,meteohub,2013-02-24 17:54:00,
2013-02-24 11:59:00,63.5,55.0,29.96,East,92,6.0,14.0,74,0.00,,,0.00,meteohub,2013-02-24 17:59:00,
2013-02-24 12:04:00,63.5,55.4,29.95,East,80,7.0,14.0,75,0.00,,,0.00,meteohub,2013-02-24 18:04:00,
2013-02-24 12:09:00,64.0,55.9,29.95,ENE,70,8.0,11.0,75,0.00,,,0.00,meteohub,2013-02-24 18:09:00,
2013-02-24 12:14:00,64.0,55.9,29.95,East,91,3.0,11.0,75,0.00,,,0.00,meteohub,2013-02-24 18:14:00,
2013-02-24 12:19:00,64.8,55.9,29.94,East,90,6.0,11.0,73,0.00,,,0.00,meteohub,2013-02-24 18:19:00,
2013-02-24 12:24:00,64.9,56.1,29.94,SE,125,4.0,10.0,73,0.00,,,0.00,meteohub,2013-02-24 18:24:00,
2013-02-24 12:29:00,65.5,57.0,29.94,East,84,10.0,11.0,74,0.00,,,0.00,meteohub,2013-02-24 18:29:00,
2013-02-24 12:34:00,65.3,56.5,29.94,East,96,8.0,11.0,73,0.00,,,0.00,meteohub,2013-02-24 18:34:00,
2013-02-24 12:39:00,65.8,57.0,29.94,ENE,74,8.0,11.0,73,0.00,,,0.00,meteohub,2013-02-24 18:39:00,
2013-02-24 12:44:00,65.8,57.0,29.94,East,89,8.0,11.0,73,0.00,,,0.00,meteohub,2013-02-24 18:44:00,
2013-02-24 12:49:00,66.6,57.2,29.93,ENE,64,8.0,13.0,72,0.00,,,0.00,meteohub,2013-02-24 18:49:00,
2013-02-24 12:54:00,66.6,57.6,29.93,ESE,109,9.0,13.0,73,0.00,,,0.00,meteohub,2013-02-24 18:54:00,
2013-02-24 12:59:00,66.7,57.0,29.92,ENE,66,11.0,17.0,71,0.00,,,0.00,meteohub,2013-02-24 18:59:00,
2013-02-24 13:04:00,66.2,56.5,29.92,ENE,75,4.0,17.0,71,0.00,,,0.00,meteohub,2013-02-24 19:04:00,
2013-02-24 13:09:00,66.6,57.2,29.92,East,96,8.0,17.0,72,0.00,,,0.00,meteohub,2013-02-24 19:09:00,
2013-02-24 13:14:00,66.7,57.7,29.92,East,87,10.0,15.0,73,0.00,,,0.00,meteohub,2013-02-24 19:14:00,
2013-02-24 13:20:00,66.7,57.4,29.92,East,84,10.0,14.0,72,0.00,,,0.00,meteohub,2013-02-24 19:20:00,
2013-02-24 13:25:00,66.6,57.2,29.92,ENE,74,9.0,14.0,72,0.00,,,0.00,meteohub,2013-02-24 19:25:00,
2013-02-24 13:30:00,66.7,57.4,29.91,ENE,73,8.0,14.0,72,0.00,,,0.00,meteohub,2013-02-24 19:30:00,
2013-02-24 13:35:00,66.7,57.0,29.91,ESE,117,10.0,14.0,71,0.00,,,0.00,meteohub,2013-02-24 19:35:00,
2013-02-24 13:40:00,66.9,57.6,29.91,SE,129,4.0,14.0,72,0.00,,,0.00,meteohub,2013-02-24 19:40:00,
2013-02-24 13:45:00,66.7,57.4,29.91,ESE,104,10.0,14.0,72,0.00,,,0.00,meteohub,2013-02-24 19:45:00,
2013-02-24 13:50:00,66.6,57.2,29.91,East,90,7.0,17.0,72,0.00,,,0.00,meteohub,2013-02-24 19:50:00,
2013-02-24 13:55:00,66.6,57.6,29.91,East,98,8.0,17.0,73,0.00,,,0.00,meteohub,2013-02-24 19:55:00,
2013-02-24 14:00:00,66.7,57.7,29.91,ENE,73,9.0,17.0,73,0.00,,,0.00,meteohub,2013-02-24 20:00:00,
2013-02-24 14:05:00,66.6,57.2,29.91,ENE,68,4.0,16.0,72,0.00,,,0.00,meteohub,2013-02-24 20:05:00,
2013-02-24 14:10:00,66.7,58.1,29.91,ENE,66,13.0,15.0,74,0.00,,,0.00,meteohub,2013-02-24 20:10:00,
2013-02-24 14:15:00,65.8,57.4,29.90,East,87,9.0,16.0,74,0.00,,,0.00,meteohub,2013-02-24 20:15:00,
2013-02-24 14:20:00,66.0,57.6,29.90,East,87,6.0,18.0,74,0.00,,,0.00,meteohub,2013-02-24 20:20:00,
2013-02-24 14:25:00,66.2,58.1,29.90,East,98,13.0,18.0,75,0.00,,,0.00,meteohub,2013-02-24 20:25:00,
2013-02-24 14:30:00,65.8,58.1,29.89,ENE,65,11.0,18.0,76,0.00,,,0.00,meteohub,2013-02-24 20:30:00,
2013-02-24 14:35:00,66.0,58.6,29.89,East,87,18.0,18.0,77,0.00,,,0.00,meteohub,2013-02-24 20:35:00,
2013-02-24 14:40:00,65.7,58.3,29.89,East,91,15.0,18.0,77,0.00,,,0.00,meteohub,2013-02-24 20:40:00,
2013-02-24 14:45:00,65.7,58.3,29.89,ESE,103,13.0,18.0,77,0.00,,,0.00,meteohub,2013-02-24 20:45:00,
2013-02-24 14:50:00,65.7,58.3,29.89,East,87,13.0,18.0,77,0.00,,,0.00,meteohub,2013-02-24 20:50:00,
2013-02-24 14:55:00,65.3,58.3,29.89,East,98,11.0,17.0,78,0.00,,,0.00,meteohub,2013-02-24 20:55:00,
2013-02-24 15:00:00,65.1,58.1,29.89,East,101,8.0,17.0,78,0.00,,,0.00,meteohub,2013-02-24 21:00:00,
2013-02-24 15:05:00,64.9,57.9,29.89,ESE,102,9.0,17.0,78,0.00,,,0.00,meteohub,2013-02-24 21:05:00,
2013-02-24 15:10:00,64.8,57.7,29.89,East,90,9.0,17.0,78,0.00,,,0.00,meteohub,2013-02-24 21:10:00,
2013-02-24 15:15:00,64.6,57.2,29.88,East,93,7.0,17.0,77,0.00,,,0.00,meteohub,2013-02-24 21:15:00,
2013-02-24 15:20:00,64.9,57.9,29.88,ESE,117,10.0,16.0,78,0.00,,,0.00,meteohub,2013-02-24 21:20:00,
2013-02-24 15:25:00,64.9,57.6,29.87,ESE,117,10.0,16.0,77,0.00,,,0.00,meteohub,2013-02-24 21:25:00,
2013-02-24 15:30:00,64.8,57.4,29.87,East,92,13.0,17.0,77,0.00,,,0.00,meteohub,2013-02-24 21:30:00,
2013-02-24 15:35:00,64.8,57.4,29.87,ESE,109,8.0,17.0,77,0.00,,,0.00,meteohub,2013-02-24 21:35:00,
2013-02-24 15:40:00,64.9,57.6,29.87,SE,124,7.0,17.0,77,0.00,,,0.00,meteohub,2013-02-24 21:40:00,
2013-02-24 15:45:00,65.1,58.1,29.87,ESE,123,10.0,17.0,78,0.00,,,0.00,meteohub,2013-02-24 21:45:00,
2013-02-24 15:51:00,64.9,57.2,29.88,ESE,119,11.0,17.0,76,0.00,,,0.00,meteohub,2013-02-24 21:51:00,
2013-02-24 15:56:00,64.9,57.2,29.88,ESE,102,8.0,15.0,76,0.00,,,0.00,meteohub,2013-02-24 21:56:00,
2013-02-24 16:01:00,64.9,57.2,29.87,ESE,119,8.0,16.0,76,0.00,,,0.00,meteohub,2013-02-24 22:01:00,
2013-02-24 16:06:00,65.1,57.7,29.87,ESE,119,12.0,16.0,77,0.00,,,0.00,meteohub,2013-02-24 22:06:00,
2013-02-24 16:11:00,65.1,57.4,29.87,ESE,122,14.0,16.0,76,0.00,,,0.00,meteohub,2013-02-24 22:11:00,
2013-02-24 16:16:00,65.1,57.4,29.87,ESE,115,10.0,15.0,76,0.00,,,0.00,meteohub,2013-02-24 22:16:00,
2013-02-24 16:21:00,65.1,57.4,29.86,SE,128,12.0,15.0,76,0.00,,,0.00,meteohub,2013-02-24 22:21:00,
2013-02-24 16:26:00,65.3,57.6,29.87,ESE,119,13.0,14.0,76,0.00,,,0.00,meteohub,2013-02-24 22:26:00,
2013-02-24 16:31:00,65.5,57.4,29.86,East,80,8.0,14.0,75,0.00,,,0.00,meteohub,2013-02-24 22:31:00,
2013-02-24 16:36:00,65.1,57.0,29.86,SE,126,6.0,14.0,75,0.00,,,0.00,meteohub,2013-02-24 22:36:00,
2013-02-24 16:41:00,65.1,57.0,29.86,ESE,123,7.0,14.0,75,0.00,,,0.00,meteohub,2013-02-24 22:41:00,
2013-02-24 16:46:00,65.1,57.0,29.86,ESE,118,9.0,13.0,75,0.00,,,0.00,meteohub,2013-02-24 22:46:00,
2013-02-24 16:51:00,64.9,56.8,29.85,East,98,6.0,13.0,75,0.00,,,0.00,meteohub,2013-02-24 22:51:00,
2013-02-24 16:56:00,64.9,56.8,29.85,East,88,9.0,13.0,75,0.00,,,0.00,meteohub,2013-02-24 22:56:00,
2013-02-24 17:01:00,64.8,56.7,29.86,East,94,8.0,13.0,75,0.00,,,0.00,meteohub,2013-02-24 23:01:00,
2013-02-24 17:06:00,64.6,56.8,29.86,East,82,8.0,13.0,76,0.00,,,0.00,meteohub,2013-02-24 23:06:00,
2013-02-24 17:11:00,64.6,56.8,29.86,East,92,8.0,15.0,76,0.00,,,0.00,meteohub,2013-02-24 23:11:00,
2013-02-24 17:16:00,64.4,56.7,29.85,East,88,11.0,15.0,76,0.00,,,0.00,meteohub,2013-02-24 23:16:00,
2013-02-24 17:21:00,64.2,56.5,29.85,East,99,10.0,15.0,76,0.00,,,0.00,meteohub,2013-02-24 23:21:00,
2013-02-24 17:26:00,64.0,56.7,29.85,ENE,74,9.0,15.0,77,0.00,,,0.00,meteohub,2013-02-24 23:26:00,
2013-02-24 17:31:00,64.0,57.0,29.85,East,88,7.0,15.0,78,0.00,,,0.00,meteohub,2013-02-24 23:31:00,
2013-02-24 17:36:00,64.0,57.0,29.85,East,92,6.0,13.0,78,0.00,,,0.00,meteohub,2013-02-24 23:36:00,
2013-02-24 17:41:00,64.0,57.4,29.84,East,96,8.0,13.0,79,0.00,,,0.00,meteohub,2013-02-24 23:41:00,
2013-02-24 17:46:00,64.0,57.4,29.84,ENE,76,8.0,15.0,79,0.00,,,0.00,meteohub,2013-02-24 23:46:00,
2013-02-24 17:51:00,63.9,57.6,29.84,ENE,67,8.0,15.0,80,0.00,,,0.00,meteohub,2013-02-24 23:51:00,
2013-02-24 17:56:00,63.7,57.4,29.84,ENE,78,7.0,15.0,80,0.00,,,0.00,meteohub,2013-02-24 23:56:00,
2013-02-24 18:01:00,63.3,57.4,29.83,East,86,7.0,14.0,81,0.00,,,0.00,meteohub,2013-02-25 00:01:00,
2013-02-24 18:06:00,63.1,57.6,29.84,East,86,7.0,14.0,82,0.00,,,0.00,meteohub,2013-02-25 00:06:00,
2013-02-24 18:11:00,63.1,57.9,29.83,East,101,9.0,13.0,83,0.00,,,0.00,meteohub,2013-02-25 00:11:00,
2013-02-24 18:17:00,63.1,57.9,29.83,East,92,11.0,17.0,83,0.00,,,0.00,meteohub,2013-02-25 00:17:00,
2013-02-24 18:22:00,63.0,58.1,29.83,East,97,8.0,17.0,84,0.00,,,0.00,meteohub,2013-02-25 00:22:00,
2013-02-24 18:27:00,62.8,57.9,29.83,East,82,5.0,17.0,84,0.00,,,0.00,meteohub,2013-02-25 00:27:00,
2013-02-24 18:32:00,62.6,58.1,29.83,ENE,78,9.0,15.0,85,0.00,,,0.00,meteohub,2013-02-25 00:32:00,
2013-02-24 18:37:00,62.6,58.1,29.83,East,92,8.0,15.0,85,0.00,,,0.00,meteohub,2013-02-25 00:37:00,
2013-02-24 18:42:00,62.4,57.9,29.83,East,88,10.0,15.0,85,0.00,,,0.00,meteohub,2013-02-25 00:42:00,
2013-02-24 18:47:00,62.4,58.1,29.83,East,79,13.0,15.0,86,0.00,,,0.00,meteohub,2013-02-25 00:47:00,
2013-02-24 18:52:00,62.4,58.1,29.83,ESE,103,10.0,17.0,86,0.00,,,0.00,meteohub,2013-02-25 00:52:00,
2013-02-24 18:57:00,62.2,57.9,29.84,East,92,16.0,17.0,86,0.00,,,0.00,meteohub,2013-02-25 00:57:00,
2013-02-24 19:02:00,62.2,57.9,29.83,ENE,76,7.0,17.0,86,0.00,,,0.00,meteohub,2013-02-25 01:02:00,
2013-02-24 19:07:00,62.2,58.6,29.85,ESE,107,7.0,16.0,88,0.00,,,0.00,meteohub,2013-02-25 01:07:00,
2013-02-24 19:12:00,62.1,58.5,29.84,East,96,7.0,16.0,88,0.01,,,0.01,meteohub,2013-02-25 01:12:00,
2013-02-24 19:17:00,61.5,58.3,29.84,East,82,9.0,15.0,89,0.07,,,0.06,meteohub,2013-02-25 01:17:00,
2013-02-24 19:22:00,61.2,58.5,29.83,East,88,11.0,15.0,91,0.12,,,0.12,meteohub,2013-02-25 01:22:00,
2013-02-24 19:27:00,61.0,58.3,29.86,ESE,109,12.0,15.0,91,0.13,,,0.13,meteohub,2013-02-25 01:27:00,
2013-02-24 19:32:00,61.0,58.6,29.84,ESE,109,15.0,18.0,92,0.15,,,0.15,meteohub,2013-02-25 01:32:00,
2013-02-24 19:37:00,61.0,58.6,29.85,ESE,118,11.0,18.0,92,0.16,,,0.16,meteohub,2013-02-25 01:37:00,
2013-02-24 19:42:00,60.6,58.6,29.84,ESE,121,14.0,18.0,93,0.20,,,0.20,meteohub,2013-02-25 01:42:00,
2013-02-24 19:47:00,60.4,58.5,29.84,ESE,110,7.0,18.0,93,0.26,,,0.25,meteohub,2013-02-25 01:47:00,
2013-02-24 19:52:00,60.3,58.5,29.83,ENE,76,9.0,17.0,94,0.30,,,0.30,meteohub,2013-02-25 01:52:00,
2013-02-24 19:57:00,60.1,58.3,29.82,ENE,66,10.0,22.0,94,0.30,,,0.30,meteohub,2013-02-25 01:57:00,
2013-02-24 20:02:00,60.1,58.3,29.83,East,83,8.0,22.0,94,0.30,,,0.30,meteohub,2013-02-25 02:02:00,
2013-02-24 20:07:00,60.1,58.3,29.83,ENE,73,5.0,22.0,94,0.30,,,0.30,meteohub,2013-02-25 02:07:00,
2013-02-24 20:12:00,60.1,58.3,29.84,East,91,6.0,16.0,94,0.29,,,0.30,meteohub,2013-02-25 02:12:00,
2013-02-24 20:17:00,60.1,58.3,29.83,ENE,78,7.0,14.0,94,0.22,,,0.30,meteohub,2013-02-25 02:17:00,
2013-02-24 20:22:00,60.3,58.8,29.83,East,90,8.0,11.0,95,0.18,,,0.30,meteohub,2013-02-25 02:22:00,
2013-02-24 20:27:00,60.3,58.8,29.83,East,89,7.0,14.0,95,0.17,,,0.30,meteohub,2013-02-25 02:27:00,
2013-02-24 20:32:00,60.3,58.8,29.83,East,95,8.0,14.0,95,0.15,,,0.30,meteohub,2013-02-25 02:32:00,
2013-02-24 20:37:00,60.4,59.0,29.81,East,82,9.0,16.0,95,0.15,,,0.31,meteohub,2013-02-25 02:37:00,
2013-02-24 20:42:00,60.4,59.0,29.82,East,101,11.0,16.0,95,0.12,,,0.32,meteohub,2013-02-25 02:42:00,
2013-02-24 20:47:00,60.4,59.0,29.83,East,98,8.0,16.0,95,0.06,,,0.32,meteohub,2013-02-25 02:47:00,
2013-02-24 20:52:00,60.6,59.2,29.81,ESE,106,9.0,19.0,95,0.03,,,0.33,meteohub,2013-02-25 02:52:00,
2013-02-24 20:57:00,60.6,59.2,29.83,ESE,123,5.0,19.0,95,0.03,,,0.33,meteohub,2013-02-25 02:57:00,
2013-02-24 21:02:00,60.4,59.0,29.84,ESE,120,8.0,19.0,95,0.03,,,0.33,meteohub,2013-02-25 03:02:00,
2013-02-24 21:07:00,60.4,59.0,29.83,ESE,119,12.0,17.0,95,0.03,,,0.33,meteohub,2013-02-25 03:07:00,
2013-02-24 21:12:00,60.6,59.2,29.81,East,92,8.0,12.0,95,0.04,,,0.34,meteohub,2013-02-25 03:12:00,
2013-02-24 21:17:00,60.4,59.0,29.82,ENE,78,3.0,14.0,95,0.05,,,0.35,meteohub,2013-02-25 03:17:00,
2013-02-24 21:22:00,60.4,59.0,29.82,ENE,68,9.0,14.0,95,0.05,,,0.35,meteohub,2013-02-25 03:22:00,
2013-02-24 21:27:00,60.4,59.0,29.82,East,93,13.0,14.0,95,0.06,,,0.36,meteohub,2013-02-25 03:27:00,
2013-02-24 21:32:00,60.4,59.4,29.83,East,101,10.0,14.0,96,0.07,,,0.37,meteohub,2013-02-25 03:32:00,
2013-02-24 21:37:00,60.6,59.5,29.83,ESE,118,8.0,14.0,96,0.07,,,0.38,meteohub,2013-02-25 03:37:00,
2013-02-24 21:42:00,60.6,59.5,29.82,ESE,108,10.0,14.0,96,0.07,,,0.39,meteohub,2013-02-25 03:42:00,
2013-02-24 21:47:00,60.6,59.5,29.82,ESE,108,15.0,15.0,96,0.11,,,0.43,meteohub,2013-02-25 03:47:00,
2013-02-24 21:52:00,60.4,59.4,29.80,ENE,74,11.0,15.0,96,0.14,,,0.47,meteohub,2013-02-25 03:52:00,
2013-02-24 21:57:00,60.3,59.2,29.79,East,80,10.0,18.0,96,0.18,,,0.51,meteohub,2013-02-25 03:57:00,
2013-02-24 22:02:00,60.3,59.2,29.81,East,101,16.0,18.0,96,0.21,,,0.54,meteohub,2013-02-25 04:02:00,
2013-02-24 22:07:00,60.4,59.5,29.78,East,98,23.0,23.0,97,0.23,,,0.56,meteohub,2013-02-25 04:07:00,
2013-02-24 22:12:00,60.3,59.2,29.77,East,85,9.0,23.0,96,0.29,,,0.63,meteohub,2013-02-25 04:12:00,
2013-02-24 22:17:00,60.1,59.2,29.78,East,88,9.0,23.0,97,0.31,,,0.66,meteohub,2013-02-25 04:17:00,
2013-02-24 22:22:00,60.1,59.2,29.77,East,80,9.0,23.0,97,0.33,,,0.68,meteohub,2013-02-25 04:22:00,
2013-02-24 22:27:00,60.1,59.2,29.78,ESE,104,12.0,22.0,97,0.33,,,0.68,meteohub,2013-02-25 04:27:00,
2013-02-24 22:32:00,60.3,59.4,29.78,ESE,105,13.0,20.0,97,0.35,,,0.72,meteohub,2013-02-25 04:32:00,
2013-02-24 22:37:00,60.4,59.5,29.78,East,86,19.0,22.0,97,0.38,,,0.76,meteohub,2013-02-25 04:37:00,
2013-02-24 22:42:00,60.3,59.4,29.75,East,86,21.0,26.0,97,0.42,,,0.81,meteohub,2013-02-25 04:42:00,
2013-02-24 22:47:00,60.3,59.4,29.77,ESE,113,13.0,26.0,97,0.44,,,0.87,meteohub,2013-02-25 04:47:00,
2013-02-24 22:52:00,60.4,59.5,29.77,East,87,15.0,26.0,97,0.44,,,0.91,meteohub,2013-02-25 04:52:00,
2013-02-24 22:57:00,60.4,59.5,29.77,ESE,109,13.0,24.0,97,0.41,,,0.93,meteohub,2013-02-25 04:57:00,
2013-02-24 23:00:00,60.6,59.7,29.78,ESE,107,15.0,24.0,97,0.41,,,0.93,meteohub,2013-02-25 05:00:00,
2013-02-24 23:05:00,60.6,59.7,29.78,East,96,15.0,27.0,97,0.44,,,1.00,meteohub,2013-02-25 05:05:00,
2013-02-24 23:10:00,60.8,59.9,29.77,ESE,103,14.0,27.0,97,0.38,,,1.02,meteohub,2013-02-25 05:10:00,
2013-02-24 23:15:00,61.0,60.1,29.76,East,86,15.0,27.0,97,0.39,,,1.05,meteohub,2013-02-25 05:15:00,
2013-02-24 23:20:00,61.0,60.1,29.75,ESE,108,14.0,24.0,97,0.42,,,1.10,meteohub,2013-02-25 05:20:00,
2013-02-24 23:25:00,61.3,60.4,29.77,ESE,107,13.0,24.0,97,0.44,,,1.13,meteohub,2013-02-25 05:25:00,
2013-02-24 23:30:00,61.3,60.4,29.78,ENE,62,7.0,24.0,97,0.45,,,1.17,meteohub,2013-02-25 05:30:00,
2013-02-24 23:35:00,61.0,60.1,29.76,East,83,13.0,23.0,97,0.46,,,1.22,meteohub,2013-02-25 05:35:00,
2013-02-24 23:40:00,60.6,59.7,29.80,ESE,113,8.0,18.0,97,0.44,,,1.25,meteohub,2013-02-25 05:40:00,
2013-02-24 23:45:00,61.0,60.1,29.76,East,82,15.0,18.0,97,0.44,,,1.31,meteohub,2013-02-25 05:45:00,
2013-02-24 23:50:00,61.0,60.1,29.75,ESE,102,10.0,18.0,97,0.48,,,1.38,meteohub,2013-02-25 05:50:00,
2013-02-24 23:53:00,61.0,60.1,29.76,East,92,16.0,18.0,97,0.48,,,1.38,meteohub,2013-02-25 05:53:00,
2013-02-24 23:57:00,61.2,60.3,29.77,East,92,7.0,17.0,97,0.51,,,1.44,meteohub,2013-02-25 05:57:00,